Current Conditions
Partly Cloudy
Conditions



Pressure
30.23 (inHG) - 1023.71 (mb)
Visibility

10.0 (miles) - 16.1 (km)
Temperature
73  °F
Temperature
39  °F
Dewpoint
29  %
 Humidity
Wind Speed
0  mph
0  kts
0  km/h
0  m/s
Wind Direction
N
45°
E
90°
135°
S
180°
225°
W
270°
315°
Calm

Due North
Airport Data
KABQ
Albuquerque International Sunport
Metar :KABQ 151252Z 00000KT 10SM FEW120 23/04 A3023 RMK AO2 SLP138 FU DSNT ALQDS HZ ALQDS T02280044 $
Mon 15th July 06:52 am
Raw Metar Info
Raw METAR is the most common format in the world for the transmission of observational weather data. It is highly standardized through the International Civil Aviation Organization (ICAO), which allows it to be understood throughout most of the world.
API Info
Data Provided by
https://www.checkwx.com/weather/KABQ

Aviation Weather providing METAR, TAF, AIRMET, SIGMET and OUTLOOK Weather Reports
© Info
CSS/SVG/PHP scripts were developed by weather34 for use in the weather34 template © 2015-2024

Guide Info provided by Metar-Wikipedia